Location: Unspecified
(58.7730°N, 5.8460°E)
Time: 09:33:37
(UTC+02:00)

Resurs 1-4 Rocket - Visible Passes

Search period start: 20 September 2017 00:00
Search period end: 30 September 2017 00:00
Orbit: 799 x 814 km, 98.5° (Epoch: 19 September)

Date Brightness Start Highest point End Pass type
(mag) Time Alt. Az. Time Alt. Az. Time Alt. Az.
20 Sep 4.7 02:01:00 10° ENE 02:01:48 10° ENE 02:02:36 10° E visible
20 Sep 2.9 03:37:55 10° NNE 03:43:03 46° E 03:44:54 33° SSE visible
20 Sep 2.6 05:17:55 10° N 05:22:56 44° WNW 05:25:59 22° WSW visible
21 Sep 3.4 03:13:30 10° NNE 03:18:16 32° E 03:19:56 27° SE visible
21 Sep 2.2 04:53:13 10° NNE 04:58:29 61° WNW 05:01:00 30° SW visible
21 Sep 3.7 06:33:52 10° N 06:37:28 19° NW 06:41:04 10° W visible
22 Sep 3.9 02:49:14 10° NE 02:53:24 23° E 02:54:58 20° ESE visible
22 Sep 2.0 04:28:35 10° NNE 04:33:56 86° WNW 04:36:02 39° SSW visible
22 Sep 3.4 06:09:01 10° N 06:13:12 24° NW 06:17:06 11° W visible
23 Sep 4.3 02:25:14 10° NE 02:28:27 16° E 02:29:59 14° ESE visible
23 Sep 2.3 04:04:00 10° NNE 04:09:19 68° ESE 04:11:04 42° S visible
23 Sep 3.0 05:44:13 10° N 05:48:53 32° NW 05:52:08 17° WSW visible
24 Sep 4.6 02:02:13 10° ENE 02:03:25 11° ENE 02:04:37 10° E visible
24 Sep 2.8 03:39:29 10° NNE 03:44:38 47° E 03:46:05 38° SE visible
24 Sep 2.6 05:19:29 10° N 05:24:30 43° WNW 05:27:09 25° WSW visible
25 Sep 3.3 03:15:04 10° NNE 03:19:51 33° E 03:21:07 30° ESE visible
25 Sep 2.2 04:54:48 10° NNE 05:00:02 60° WNW 05:02:11 34° SW visible
25 Sep 3.7 06:35:27 10° N 06:39:00 19° NW 06:42:34 10° W visible
26 Sep 3.8 02:50:46 10° NE 02:55:00 24° E 02:56:08 22° ESE visible
26 Sep 2.0 04:30:09 10° NNE 04:35:30 84° WNW 04:37:12 45° SSW visible
26 Sep 3.4 06:10:36 10° N 06:14:46 24° NW 06:18:17 13° W visible
27 Sep 4.3 02:26:44 10° NE 02:30:04 16° E 02:31:09 16° E visible
27 Sep 2.2 04:05:34 10° NNE 04:10:54 70° ESE 04:12:14 50° S visible
27 Sep 3.0 05:45:48 10° N 05:50:26 31° NW 05:53:18 19° WSW visible
28 Sep 4.6 02:03:31 10° ENE 02:05:02 11° ENE 02:06:11 10° E visible
28 Sep 2.7 03:41:02 10° NNE 03:46:12 49° E 03:47:15 43° SE visible
28 Sep 2.6 05:21:04 10° N 05:26:03 42° WNW 05:28:20 28° WSW visible
29 Sep 3.3 03:16:36 10° NNE 03:21:27 34° E 03:22:17 32° ESE visible
29 Sep 2.2 04:56:22 10° NNE 05:01:36 58° WNW 05:03:21 39° WSW visible
29 Sep 3.7 06:37:02 10° N 06:40:33 18° NW 06:44:04 10° W visible
